Time,TemperatureF,DewpointF,PressureIn,WindDirection,WindDirectionDegrees,WindSpeedMPH,WindSpeedGustMPH,Humidity,HourlyPrecipIn,Conditions,Clouds,dailyrainin,SolarRadiationWatts/m^2,SoftwareType,DateUTC
2013-02-02 00:02:00,19.9,6.0,30.08,NE,53,3.0,8.0,55,0.00,,,0.00,0,weatherlink.com 1.10,2013-02-02 05:02:00,
2013-02-02 00:19:00,19.5,6.0,30.09,NE,34,3.0,9.0,56,0.00,,,0.00,0,weatherlink.com 1.10,2013-02-02 05:19:00,
2013-02-02 00:32:00,19.6,7.0,30.09,NNE,26,7.0,7.0,57,0.00,,,0.00,0,weatherlink.com 1.10,2013-02-02 05:32:00,
2013-02-02 00:47:00,19.3,7.0,30.09,North,360,0.0,15.0,59,0.00,,,0.00,0,weatherlink.com 1.10,2013-02-02 05:47:00,
2013-02-02 01:02:00,19.0,7.0,30.10,NE,40,7.0,12.0,60,0.00,,,0.00,0,weatherlink.com 1.10,2013-02-02 06:02:00,
2013-02-02 01:18:00,18.7,6.0,30.10,NNW,330,0.0,8.0,59,0.00,,,0.00,0,weatherlink.com 1.10,2013-02-02 06:18:00,
2013-02-02 01:33:00,18.4,5.0,30.11,NNW,345,2.0,17.0,57,0.00,,,0.00,0,weatherlink.com 1.10,2013-02-02 06:33:00,
2013-02-02 01:47:00,18.2,4.0,30.12,NNW,335,1.0,11.0,54,0.00,,,0.00,0,weatherlink.com 1.10,2013-02-02 06:47:00,
2013-02-02 02:02:00,17.8,4.0,30.12,North,360,3.0,10.0,56,0.00,,,0.00,0,weatherlink.com 1.10,2013-02-02 07:02:00,
2013-02-02 02:17:00,17.4,4.0,30.12,North,360,4.0,7.0,56,0.00,,,0.00,0,weatherlink.com 1.10,2013-02-02 07:17:00,
2013-02-02 02:33:00,17.2,3.0,30.13,North,360,2.0,5.0,55,0.00,,,0.00,0,weatherlink.com 1.10,2013-02-02 07:33:00,
2013-02-02 02:48:00,16.8,4.0,30.13,NE,42,0.0,4.0,57,0.00,,,0.00,0,weatherlink.com 1.10,2013-02-02 07:48:00,
2013-02-02 03:18:00,16.5,3.0,30.14,NNE,18,0.0,1.0,56,0.00,,,0.00,0,weatherlink.com 1.10,2013-02-02 08:18:00,
2013-02-02 03:35:00,16.4,3.0,30.14,NNE,24,0.0,0.0,57,0.00,,,0.00,0,weatherlink.com 1.10,2013-02-02 08:35:00,
2013-02-02 03:48:00,15.6,4.0,30.15,NNE,24,0.0,0.0,61,0.00,,,0.00,0,weatherlink.com 1.10,2013-02-02 08:48:00,
2013-02-02 04:03:00,14.7,5.0,30.15,East,94,5.0,5.0,65,0.00,,,0.00,0,weatherlink.com 1.10,2013-02-02 09:03:00,
2013-02-02 04:18:00,14.8,5.0,30.16,East,98,0.0,0.0,65,0.00,,,0.00,0,weatherlink.com 1.10,2013-02-02 09:18:00,
2013-02-02 04:33:00,15.3,4.0,30.16,WNW,287,0.0,4.0,61,0.00,,,0.00,0,weatherlink.com 1.10,2013-02-02 09:33:00,
2013-02-02 04:48:00,15.6,4.0,30.17,WNW,302,0.0,4.0,59,0.00,,,0.00,0,weatherlink.com 1.10,2013-02-02 09:48:00,
2013-02-02 05:03:00,15.4,3.0,30.17,WNW,302,0.0,1.0,59,0.00,,,0.00,0,weatherlink.com 1.10,2013-02-02 10:03:00,
2013-02-02 05:18:00,14.9,4.0,30.18,WNW,302,0.0,3.0,61,0.00,,,0.00,0,weatherlink.com 1.10,2013-02-02 10:18:00,
2013-02-02 05:33:00,14.1,5.0,30.17,WNW,302,0.0,3.0,68,0.00,,,0.00,0,weatherlink.com 1.10,2013-02-02 10:33:00,
2013-02-02 05:48:00,13.8,5.0,30.17,WNW,302,0.0,2.0,67,0.00,,,0.00,0,weatherlink.com 1.10,2013-02-02 10:48:00,
2013-02-02 06:03:00,13.3,6.0,30.17,WNW,291,2.0,4.0,71,0.00,,,0.00,0,weatherlink.com 1.10,2013-02-02 11:03:00,
2013-02-02 06:18:00,13.1,6.0,30.18,West,269,3.0,5.0,72,0.00,,,0.00,0,weatherlink.com 1.10,2013-02-02 11:18:00,
2013-02-02 06:33:00,13.1,5.0,30.18,West,271,2.0,4.0,71,0.00,,,0.00,0,weatherlink.com 1.10,2013-02-02 11:33:00,
2013-02-02 06:48:00,13.2,6.0,30.18,West,271,0.0,3.0,72,0.00,,,0.00,0,weatherlink.com 1.10,2013-02-02 11:48:00,
2013-02-02 07:03:00,12.4,6.0,30.19,South,184,2.0,4.0,74,0.00,,,0.00,5,weatherlink.com 1.10,2013-02-02 12:03:00,
2013-02-02 07:18:00,12.6,6.0,30.19,South,186,0.0,2.0,73,0.00,,,0.00,11,weatherlink.com 1.10,2013-02-02 12:18:00,
2013-02-02 07:33:00,12.0,6.0,30.20,South,186,2.0,2.0,75,0.00,,,0.00,16,weatherlink.com 1.10,2013-02-02 12:33:00,
2013-02-02 08:04:00,14.0,7.0,30.20,South,186,0.0,3.0,74,0.00,,,0.00,151,weatherlink.com 1.10,2013-02-02 13:04:00,
2013-02-02 08:18:00,15.5,7.0,30.20,SSE,162,3.0,5.0,70,0.00,,,0.00,237,weatherlink.com 1.10,2013-02-02 13:18:00,
2013-02-02 08:34:00,16.7,8.0,30.20,South,173,6.0,7.0,68,0.00,,,0.00,267,weatherlink.com 1.10,2013-02-02 13:34:00,
2013-02-02 08:49:00,17.3,7.0,30.20,SSE,150,0.0,5.0,65,0.00,,,0.00,167,weatherlink.com 1.10,2013-02-02 13:49:00,
2013-02-02 09:03:00,17.6,6.0,30.20,South,186,0.0,6.0,61,0.00,,,0.00,218,weatherlink.com 1.10,2013-02-02 14:03:00,
2013-02-02 09:19:00,19.5,7.0,30.20,South,183,3.0,8.0,58,0.00,,,0.00,234,weatherlink.com 1.10,2013-02-02 14:19:00,
2013-02-02 09:34:00,20.0,7.0,30.19,SE,125,0.0,6.0,57,0.00,,,0.00,350,weatherlink.com 1.10,2013-02-02 14:34:00,
2013-02-02 09:49:00,21.8,7.0,30.19,South,169,3.0,6.0,52,0.00,,,0.00,473,weatherlink.com 1.10,2013-02-02 14:49:00,
2013-02-02 10:04:00,22.1,7.0,30.19,NW,319,2.0,11.0,52,0.00,,,0.00,301,weatherlink.com 1.10,2013-02-02 15:04:00,
2013-02-02 10:19:00,22.7,7.0,30.18,SW,236,4.0,13.0,52,0.00,,,0.00,246,weatherlink.com 1.10,2013-02-02 15:19:00,
2013-02-02 10:34:00,22.8,9.0,30.18,SW,227,0.0,9.0,55,0.00,,,0.00,329,weatherlink.com 1.10,2013-02-02 15:34:00,
2013-02-02 10:51:00,23.2,8.0,30.17,WNW,286,2.0,13.0,53,0.00,,,0.00,288,weatherlink.com 1.10,2013-02-02 15:51:00,
2013-02-02 11:04:00,23.2,9.0,30.17,WNW,298,8.0,10.0,54,0.00,,,0.00,285,weatherlink.com 1.10,2013-02-02 16:04:00,
2013-02-02 11:19:00,23.7,9.0,30.16,WNW,286,6.0,11.0,53,0.00,,,0.00,322,weatherlink.com 1.10,2013-02-02 16:19:00,
2013-02-02 11:34:00,23.6,9.0,30.14,West,259,5.0,11.0,53,0.00,,,0.00,276,weatherlink.com 1.10,2013-02-02 16:34:00,
2013-02-02 11:49:00,24.1,10.0,30.14,West,280,4.0,10.0,56,0.00,,,0.00,327,weatherlink.com 1.10,2013-02-02 16:49:00,
2013-02-02 12:04:00,25.1,9.0,30.12,South,171,10.0,15.0,50,0.00,,,0.00,446,weatherlink.com 1.10,2013-02-02 17:04:00,
2013-02-02 12:19:00,25.5,9.0,30.11,WSW,252,5.0,14.0,49,0.00,,,0.00,670,weatherlink.com 1.10,2013-02-02 17:19:00,
2013-02-02 12:34:00,26.1,9.0,30.10,SW,216,6.0,11.0,49,0.00,,,0.00,318,weatherlink.com 1.10,2013-02-02 17:34:00,
2013-02-02 12:49:00,25.8,9.0,30.09,SSW,199,7.0,13.0,49,0.00,,,0.00,216,weatherlink.com 1.10,2013-02-02 17:49:00,
2013-02-02 13:04:00,25.9,9.0,30.08,SSW,198,6.0,10.0,49,0.00,,,0.00,211,weatherlink.com 1.10,2013-02-02 18:04:00,
2013-02-02 13:19:00,26.5,10.0,30.07,South,190,8.0,11.0,49,0.00,,,0.00,271,weatherlink.com 1.10,2013-02-02 18:19:00,
2013-02-02 13:34:00,26.4,9.0,30.06,SSE,166,4.0,12.0,48,0.00,,,0.00,146,weatherlink.com 1.10,2013-02-02 18:34:00,
2013-02-02 13:49:00,26.5,10.0,30.05,SW,216,5.0,9.0,50,0.00,,,0.00,250,weatherlink.com 1.10,2013-02-02 18:49:00,
2013-02-02 14:04:00,26.8,9.0,30.05,SSW,207,4.0,12.0,48,0.00,,,0.00,234,weatherlink.com 1.10,2013-02-02 19:04:00,
2013-02-02 14:19:00,27.1,10.0,30.04,SW,234,6.0,8.0,49,0.00,,,0.00,134,weatherlink.com 1.10,2013-02-02 19:19:00,
2013-02-02 14:34:00,27.2,11.0,30.03,SSE,167,4.0,10.0,50,0.00,,,0.00,158,weatherlink.com 1.10,2013-02-02 19:34:00,
2013-02-02 14:49:00,27.5,10.0,30.02,South,169,7.0,12.0,48,0.00,,,0.00,128,weatherlink.com 1.10,2013-02-02 19:49:00,
2013-02-02 15:04:00,28.0,11.0,30.02,South,173,3.0,11.0,49,0.00,,,0.00,209,weatherlink.com 1.10,2013-02-02 20:04:00,
2013-02-02 15:19:00,28.1,11.0,30.02,SSW,205,14.0,16.0,48,0.00,,,0.00,134,weatherlink.com 1.10,2013-02-02 20:19:00,
2013-02-02 15:34:00,28.2,10.0,30.01,South,184,3.0,13.0,47,0.00,,,0.00,132,weatherlink.com 1.10,2013-02-02 20:34:00,
2013-02-02 15:49:00,28.4,9.0,30.01,SSW,209,6.0,15.0,45,0.00,,,0.00,97,weatherlink.com 1.10,2013-02-02 20:49:00,
2013-02-02 16:05:00,28.2,10.0,30.01,SSW,208,5.0,10.0,46,0.00,,,0.00,63,weatherlink.com 1.10,2013-02-02 21:05:00,
2013-02-02 16:19:00,28.2,10.0,30.00,SSW,204,5.0,9.0,47,0.00,,,0.00,42,weatherlink.com 1.10,2013-02-02 21:19:00,
2013-02-02 16:34:00,28.0,7.0,30.01,SW,218,8.0,18.0,42,0.00,,,0.00,25,weatherlink.com 1.10,2013-02-02 21:34:00,
2013-02-02 16:49:00,27.6,8.0,30.01,WSW,238,10.0,12.0,43,0.00,,,0.00,11,weatherlink.com 1.10,2013-02-02 21:49:00,
2013-02-02 17:04:00,27.4,8.0,30.01,WNW,293,7.0,15.0,44,0.00,,,0.00,0,weatherlink.com 1.10,2013-02-02 22:04:00,
2013-02-02 17:20:00,27.2,7.0,30.01,SW,225,5.0,13.0,42,0.00,,,0.00,0,weatherlink.com 1.10,2013-02-02 22:20:00,
2013-02-02 17:34:00,27.0,8.0,30.00,WSW,244,2.0,10.0,44,0.00,,,0.00,0,weatherlink.com 1.10,2013-02-02 22:34:00,
2013-02-02 17:49:00,26.8,7.0,30.01,West,259,5.0,9.0,44,0.00,,,0.00,0,weatherlink.com 1.10,2013-02-02 22:49:00,
2013-02-02 18:07:00,26.5,8.0,30.01,SW,232,0.0,5.0,46,0.00,,,0.00,0,weatherlink.com 1.10,2013-02-02 23:07:00,
2013-02-02 18:20:00,26.4,8.0,30.01,SW,222,3.0,5.0,46,0.00,,,0.00,0,weatherlink.com 1.10,2013-02-02 23:20:00,
2013-02-02 18:34:00,26.4,9.0,30.01,SW,214,4.0,5.0,48,0.00,,,0.00,0,weatherlink.com 1.10,2013-02-02 23:34:00,
2013-02-02 18:49:00,26.3,9.0,30.01,SW,215,1.0,5.0,49,0.00,,,0.00,0,weatherlink.com 1.10,2013-02-02 23:49:00,
2013-02-02 19:05:00,26.3,9.0,30.01,SW,224,3.0,7.0,48,0.00,,,0.00,0,weatherlink.com 1.10,2013-02-03 00:05:00,
2013-02-02 19:19:00,26.3,10.0,30.01,SW,229,5.0,6.0,50,0.00,,,0.00,0,weatherlink.com 1.10,2013-02-03 00:19:00,
2013-02-02 19:34:00,26.3,9.0,30.01,WSW,241,12.0,12.0,48,0.00,,,0.00,0,weatherlink.com 1.10,2013-02-03 00:34:00,
2013-02-02 19:49:00,26.3,9.0,30.01,SW,230,0.0,6.0,49,0.00,,,0.00,0,weatherlink.com 1.10,2013-02-03 00:49:00,
2013-02-02 20:05:00,26.2,9.0,30.01,SW,229,2.0,9.0,49,0.00,,,0.00,0,weatherlink.com 1.10,2013-02-03 01:05:00,
2013-02-02 20:19:00,26.1,9.0,30.01,SW,215,4.0,10.0,49,0.00,,,0.00,0,weatherlink.com 1.10,2013-02-03 01:19:00,
2013-02-02 20:34:00,26.1,10.0,30.01,SW,219,4.0,11.0,50,0.00,,,0.00,0,weatherlink.com 1.10,2013-02-03 01:34:00,
2013-02-02 20:49:00,26.0,10.0,30.02,West,270,5.0,14.0,51,0.00,,,0.00,0,weatherlink.com 1.10,2013-02-03 01:49:00,
2013-02-02 21:04:00,25.8,10.0,30.02,West,264,6.0,7.0,52,0.00,,,0.00,0,weatherlink.com 1.10,2013-02-03 02:04:00,
2013-02-02 21:19:00,25.5,11.0,30.02,SW,225,2.0,9.0,54,0.00,,,0.00,0,weatherlink.com 1.10,2013-02-03 02:19:00,
2013-02-02 21:34:00,25.4,11.0,30.02,WSW,257,3.0,8.0,54,0.00,,,0.00,0,weatherlink.com 1.10,2013-02-03 02:34:00,
2013-02-02 21:50:00,25.2,11.0,30.02,SSW,211,5.0,7.0,56,0.00,,,0.00,0,weatherlink.com 1.10,2013-02-03 02:50:00,
2013-02-02 22:05:00,24.9,12.0,30.02,WSW,246,6.0,8.0,58,0.00,,,0.00,0,weatherlink.com 1.10,2013-02-03 03:05:00,
2013-02-02 22:20:00,24.7,12.0,30.02,WSW,240,5.0,9.0,59,0.00,,,0.00,0,weatherlink.com 1.10,2013-02-03 03:20:00,
2013-02-02 22:34:00,24.5,13.0,30.02,WSW,246,5.0,8.0,61,0.00,,,0.00,0,weatherlink.com 1.10,2013-02-03 03:34:00,
2013-02-02 22:49:00,24.3,13.0,30.02,SW,225,3.0,7.0,62,0.00,,,0.00,0,weatherlink.com 1.10,2013-02-03 03:49:00,
2013-02-02 23:05:00,24.0,13.0,30.02,WSW,258,0.0,5.0,64,0.00,,,0.00,0,weatherlink.com 1.10,2013-02-03 04:05:00,
2013-02-02 23:20:00,23.8,14.0,30.03,WSW,257,0.0,0.0,65,0.00,,,0.00,0,weatherlink.com 1.10,2013-02-03 04:20:00,
2013-02-02 23:34:00,23.5,14.0,30.03,North,360,0.0,7.0,66,0.00,,,0.00,0,weatherlink.com 1.10,2013-02-03 04:34:00,
2013-02-02 23:50:00,23.3,13.0,30.03,North,5,0.0,2.0,66,0.00,,,0.00,0,weatherlink.com 1.10,2013-02-03 04:50:00,